FW6683 Weather Reports


time (UTC)temp
C
wind
direction
speed
KPH
gust
KPH
rain 1hr
cm
rain 24hr
cm
rain mn
cm
humidity
%
barometer
mb
20240418171503 12 259 9.7 25.7 0.00 0.05 0.03 82 1019.9
20240418171004 12 188 8.0 22.5 0.00 0.05 0.03 82 1019.9
20240418170503 12 254 9.7 20.9 0.00 0.05 0.03 82 1019.9
20240418170003 12 239 6.4 24.1 0.00 0.05 0.03 83 1019.8
20240418165501 12 248 3.2 24.1 0.00 0.05 0.03 83 1019.8
20240418165104 12 254 6.4 27.4 0.00 0.05 0.03 83 1019.8
20240418164559 12 303 6.4 27.4 0.00 0.05 0.03 83 1019.8
20240418164059 12 268 3.2 24.1 0.00 0.05 0.03 84 1019.7
20240418163602 12 311 12.9 24.1 0.00 0.05 0.03 83 1019.7
20240418163059 12 278 6.4 27.4 0.00 0.05 0.03 83 1019.8
20240418162601 12 241 4.8 27.4 0.00 0.05 0.03 83 1019.8
20240418162058 12 302 6.4 16.1 0.00 0.05 0.03 83 1019.8
20240418161558 12 268 3.2 25.7 0.00 0.05 0.03 83 1019.8
20240418161057 12 267 8.0 25.7 0.00 0.05 0.03 83 1019.9
20240418160556 12 274 4.8 22.5 0.00 0.05 0.03 84 1019.8
20240418160059 12 250 4.8 25.7 0.00 0.08 0.03 83 1020.0
20240418155554 12 309 8.0 25.7 0.00 0.08 0.03 83 1019.9
20240418155053 12 259 3.2 20.9 0.00 0.08 0.03 83 1020.1
20240418154553 12 255 3.2 20.9 0.00 0.08 0.03 83 1020.1
20240418154052 12 243 8.0 22.5 0.00 0.08 0.03 83 1020.2
20240418153552 12 294 4.8 29.0 0.00 0.08 0.03 84 1020.3
20240418153050 12 229 9.7 29.0 0.00 0.08 0.03 85 1020.3
20240418152548 11 352 6.4 20.9 0.00 0.08 0.03 86 1020.3
20240418152048 11 293 6.4 27.4 0.00 0.08 0.03 86 1020.4
20240418151548 11 241 9.7 27.4 0.00 0.08 0.03 86 1020.4
20240418151046 11 290 4.8 17.7 0.00 0.08 0.03 86 1020.5
20240418150546 11 243 4.8 24.1 0.00 0.08 0.03 86 1020.5
20240418150046 11 282 4.8 17.7 0.00 0.10 0.03 87 1020.6
20240418145545 11 247 4.8 19.3 0.00 0.10 0.03 88 1020.6
20240418145044 10 274 1.6 19.3 0.00 0.10 0.03 88 1020.6
20240418144544 10 275 3.2 19.3 0.00 0.10 0.03 88 1020.7
20240418144044 10 307 6.4 14.5 0.00 0.10 0.03 88 1020.9
20240418143541 10 264 3.2 11.3 0.00 0.10 0.03 88 1021.1
20240418143140 10 273 0.0 16.1 0.00 0.10 0.03 89 1021.1
20240418142538 10 269 6.4 16.1 0.00 0.10 0.03 88 1021.3
20240418142038 10 302 4.8 16.1 0.00 0.10 0.03 89 1021.4
20240418141537 10 236 3.2 16.1 0.00 0.10 0.03 88 1021.6
20240418141038 10 287 6.4 24.1 0.00 0.10 0.03 87 1021.5
20240418140539 10 267 8.0 27.4 0.00 0.10 0.03 86 1021.5
20240418140040 11 281 12.9 27.4 0.00 0.18 0.03 85 1021.6
20240418135536 11 224 3.2 20.9 0.00 0.18 0.03 84 1021.5
20240418135034 11 240 8.0 20.9 0.00 0.18 0.03 83 1021.6
20240418134541 11 273 9.7 19.3 0.00 0.18 0.03 82 1021.7
20240418134038 11 264 6.4 14.5 0.00 0.18 0.03 82 1021.7
20240418133534 11 285 6.4 27.4 0.00 0.18 0.03 81 1021.7
20240418133033 11 257 6.4 27.4 0.00 0.18 0.03 81 1021.6
20240418132536 11 160 8.0 24.1 0.00 0.18 0.03 81 1021.7
20240418132032 11 267 9.7 24.1 0.00 0.18 0.03 80 1021.7
20240418131540 11 273 3.2 14.5 0.00 0.18 0.03 82 1021.7
20240418131031 11 266 4.8 14.5 0.00 0.18 0.03 81 1021.7
20240418130535 11 269 1.6 14.5 0.00 0.18 0.03 82 1021.7
20240418130032 11 300 1.6 29.0 0.00 0.23 0.03 82 1021.7
20240418125530 11 281 4.8 29.0 0.00 0.23 0.03 82 1021.7
20240418125034 11 200 6.4 24.1 0.00 0.23 0.03 83 1021.7
20240418124530 11 301 4.8 30.6 0.00 0.23 0.03 82 1021.7
20240418124026 11 277 4.8 30.6 0.00 0.23 0.03 83 1021.9
20240418123525 11 292 11.3 29.0 0.00 0.23 0.03 82 1021.7
20240418123024 10 290 4.8 20.9 0.00 0.23 0.03 84 1021.7
20240418122524 10 307 11.3 22.5 0.00 0.23 0.03 82 1021.8
20240418122024 10 274 11.3 22.5 0.00 0.23 0.03 82 1021.9
20240418121521 10 274 9.7 22.5 0.00 0.23 0.03 83 1022.2
20240418121023 10 300 8.0 17.7 0.00 0.23 0.03 83 1022.3
20240418120519 10 264 3.2 17.7 0.00 0.23 0.03 84 1022.3
20240418120018 10 262 4.8 17.7 0.00 0.23 0.03 84 1022.4
20240418115518 10 264 6.4 17.7 0.00 0.23 0.03 84 1022.4
20240418115016 10 267 4.8 17.7 0.00 0.23 0.03 85 1022.4
20240418114516 10 258 3.2 19.3 0.00 0.23 0.03 85 1022.5
20240418114014 10 285 6.4 24.1 0.00 0.23 0.03 85 1022.5
20240418113513 10 262 6.4 24.1 0.00 0.23 0.03 85 1022.6
20240418113012 9 237 9.7 20.9 0.00 0.23 0.03 85 1022.7
20240418112511 9 246 6.4 20.9 0.00 0.23 0.03 87 1022.7
20240418112011 9 323 6.4 16.1 0.00 0.23 0.03 88 1022.9
20240418111511 9 286 6.4 17.7 0.00 0.23 0.03 88 1022.9
20240418111011 9 240 6.4 17.7 0.00 0.23 0.03 88 1022.8
20240418110511 9 264 4.8 14.5 0.00 0.23 0.03 88 1022.7
20240418110008 9 276 6.4 17.7 0.00 0.25 0.03 88 1022.7
20240418105508 9 217 4.8 20.9 0.00 0.25 0.03 88 1022.7
20240418105007 9 200 4.8 20.9 0.00 0.25 0.03 88 1022.9
20240418104507 9 257 3.2 16.1 0.00 0.25 0.03 88 1023.0
20240418104010 9 233 8.0 16.1 0.00 0.25 0.03 88 1022.9
20240418103505 9 316 4.8 16.1 0.00 0.25 0.03 90 1022.9
20240418103004 9 279 3.2 16.1 0.00 0.25 0.03 90 1023.0
20240418102505 8 274 6.4 17.7 0.00 0.25 0.03 90 1023.0
20240418102005 8 221 1.6 16.1 0.00 0.25 0.03 90 1023.1
20240418101505 8 274 4.8 17.7 0.00 0.25 0.03 90 1023.1
20240418101004 8 281 3.2 17.7 0.00 0.25 0.03 91 1023.2
20240418100604 8 274 3.2 17.7 0.00 0.25 0.03 92 1023.1
20240418100058 8 314 8.0 17.7 0.00 0.25 0.03 92 1023.2
20240418095557 8 288 1.6 16.1 0.00 0.25 0.03 92 1023.4
20240418095057 8 277 4.8 16.1 0.00 0.25 0.03 93 1023.4
20240418094614 8 277 3.2 11.3 0.00 0.25 0.03 93 1023.5
20240418094056 8 278 3.2 12.9 0.00 0.25 0.03 93 1023.5
20240418093555 8 267 1.6 12.9 0.00 0.25 0.03 93 1023.6
20240418093100 8 273 3.2 19.3 0.00 0.25 0.03 93 1023.6
20240418092554 8 258 6.4 19.3 0.00 0.25 0.03 92 1023.5
20240418092053 8 273 4.8 17.7 0.00 0.25 0.03 93 1023.5
20240418091553 8 274 1.6 17.7 0.00 0.25 0.03 93 1023.6
20240418091053 7 281 3.2 12.9 0.00 0.25 0.03 93 1023.5
20240418090553 7 265 1.6 11.3 0.00 0.25 0.03 93 1023.6
20240418090108 7 250 3.2 11.3 0.00 0.25 0.03 94 1023.7
20240418085550 7 258 0.0 22.5 0.00 0.25 0.03 94 1023.7
20240418085047 7 247 8.0 22.5 0.00 0.25 0.03 94 1023.6
20240418084600 7 282 1.6 8.0 0.00 0.25 0.03 95 1023.7
20240418084045 7 261 1.6 12.9 0.00 0.25 0.03 94 1023.7
20240418083544 7 314 1.6 12.9 0.00 0.25 0.03 94 1023.6
20240418083045 7 257 1.6 8.0 0.00 0.25 0.03 94 1023.8
20240418082544 7 307 0.0 14.5 0.00 0.25 0.03 94 1023.7
20240418082048 7 216 3.2 16.1 0.00 0.25 0.03 94 1023.7
20240418081544 7 241 1.6 16.1 0.00 0.25 0.03 94 1023.7
20240418081043 7 321 3.2 12.9 0.00 0.25 0.03 95 1023.8
20240418080543 7 279 1.6 14.5 0.00 0.25 0.03 95 1023.8
20240418080050 7 281 3.2 14.5 0.00 0.25 0.03 95 1023.8
20240418075543 7 301 3.2 9.7 0.00 0.25 0.03 96 1023.8
20240418075043 7 271 0.0 14.5 0.00 0.25 0.03 96 1024.0
20240418074540 7 302 1.6 14.5 0.00 0.25 0.03 96 1023.9
20240418074039 7 269 3.2 12.9 0.00 0.25 0.03 96 1023.9
20240418073537 7 259 0.0 12.9 0.00 0.25 0.03 97 1023.7
20240418073038 6 288 1.6 12.9 0.00 0.25 0.03 97 1023.8
20240418072536 6 283 0.0 9.7 0.00 0.25 0.03 97 1023.8
20240418072035 6 284 0.0 8.0 0.00 0.25 0.03 98 1023.8
20240418071537 6 283 1.6 8.0 0.00 0.25 0.03 98 1023.8
20240418071035 6 292 0.0 9.7 0.00 0.25 0.03 97 1023.7
20240418070532 6 291 4.8 11.3 0.00 0.25 0.03 98 1023.6
20240418070057 5 289 4.8 12.9 0.00 0.25 0.03 98 1023.7
20240418065530 5 296 4.8 11.3 0.03 0.25 0.03 98 1023.8
20240418065030 5 288 3.2 11.3 0.03 0.25 0.03 98 1024.0
20240418064528 5 271 1.6 6.4 0.03 0.25 0.03 98 1023.8
20240418064028 5 289 0.0 8.0 0.03 0.25 0.03 98 1023.8
20240418063527 5 289 0.0 9.7 0.03 0.25 0.03 98 1023.8
20240418063027 5 286 3.2 8.0 0.03 0.25 0.03 98 1023.8
20240418062525 5 278 1.6 8.0 0.03 0.25 0.03 98 1023.7
20240418062028 5 286 0.0 6.4 0.03 0.25 0.03 98 1023.8
20240418061529 4 277 0.0 6.4 0.03 0.25 0.03 98 1023.7
20240418061022 4 300 0.0 4.8 0.03 0.25 0.03 98 1023.7
20240418060521 4 301 0.0 4.8 0.03 0.25 0.03 98 1023.8
20240418060021 4 113 0.0 0.0 0.03 0.25 0.03 98 1023.8
20240418055520 4 113 0.0 0.0 0.00 0.23 0.00 98 1023.7
20240418055019 4 113 0.0 0.0 0.00 0.23 0.00 98 1023.7
20240418054519 3 113 0.0 0.0 0.00 0.23 0.00 98 1023.8
20240418054019 3 113 0.0 0.0 0.00 0.23 0.00 97 1023.8
20240418053517 4 113 0.0 0.0 0.00 0.23 0.00 98 1023.8
20240418053017 4 113 0.0 0.0 0.00 0.23 0.00 98 1023.8
20240418052516 4 113 0.0 0.0 0.00 0.23 0.00 98 1023.8
20240418052015 4 113 0.0 0.0 0.00 0.23 0.00 98 1023.8
20240418051516 4 113 0.0 0.0 0.00 0.23 0.00 98 1023.8
20240418051015 4 113 0.0 0.0 0.00 0.23 0.00 98 1023.7
20240418050517 4 113 0.0 0.0 0.00 0.23 0.00 98 1023.6
20240418050015 4 113 0.0 0.0 0.00 0.23 0.00 98 1023.6
20240418045515 4 113 0.0 0.0 0.00 0.23 0.00 98 1023.4
20240418045014 4 113 0.0 0.0 0.00 0.23 0.00 98 1023.4
20240418044517 4 113 0.0 0.0 0.00 0.23 0.00 98 1023.5
20240418044016 4 113 0.0 0.0 0.00 0.23 0.00 98 1023.6
20240418043514 4 113 0.0 0.0 0.00 0.23 0.00 98 1023.7
20240418043016 4 113 0.0 0.0 0.00 0.23 0.00 98 1023.6
20240418042513 4 113 0.0 0.0 0.00 0.23 0.00 98 1023.9
20240418042014 4 113 0.0 0.0 0.00 0.23 0.00 98 1023.8
20240418041513 4 113 0.0 0.0 0.00 0.23 0.00 98 1023.7
20240418041013 4 113 0.0 0.0 0.00 0.23 0.00 98 1023.6
20240418040514 4 113 0.0 0.0 0.00 0.23 0.00 98 1023.6
20240418040013 4 113 0.0 0.0 0.00 0.23 0.00 98 1023.5
20240418035513 4 113 0.0 0.0 0.00 0.23 0.00 98 1023.6
20240418035012 4 113 0.0 0.0 0.00 0.23 0.00 98 1023.7
20240418034515 4 113 0.0 0.0 0.00 0.23 0.00 98 1023.7
20240418034012 4 113 0.0 0.0 0.00 0.23 0.00 98 1023.6
20240418033511 4 113 0.0 0.0 0.00 0.23 0.00 98 1023.6
20240418033011 4 113 0.0 0.0 0.00 0.23 0.00 98 1023.5
20240418032512 4 113 0.0 0.0 0.00 0.23 0.00 98 1023.6
20240418032010 4 113 0.0 0.0 0.00 0.23 0.00 98 1023.6
20240418031510 4 113 0.0 0.0 0.00 0.23 0.00 98 1023.6
20240418031009 4 113 0.0 0.0 0.00 0.23 0.00 98 1023.7
20240418030509 4 113 0.0 0.0 0.00 0.23 0.00 98 1023.8
20240418030009 4 113 0.0 0.0 0.00 0.23 0.00 98 1023.7
20240418025509 4 113 0.0 0.0 0.00 0.23 0.00 98 1023.6
20240418025013 4 113 0.0 0.0 0.00 0.23 0.00 98 1023.5
20240418024508 4 113 0.0 0.0 0.00 0.23 0.00 98 1023.5
20240418024007 4 113 0.0 0.0 0.00 0.23 0.00 98 1023.5
20240418023507 4 113 0.0 0.0 0.00 0.23 0.00 98 1023.5
20240418023007 4 113 0.0 0.0 0.00 0.23 0.00 98 1023.6
20240418022506 4 113 0.0 0.0 0.00 0.23 0.00 98 1023.4
20240418022007 3 113 0.0 0.0 0.00 0.23 0.00 98 1023.3
20240418021507 3 113 0.0 0.0 0.00 0.23 0.00 98 1023.3
20240418021008 3 113 0.0 0.0 0.00 0.23 0.00 98 1023.4
20240418020508 3 113 0.0 0.0 0.00 0.23 0.00 98 1023.4
20240418020008 4 113 0.0 0.0 0.00 0.23 0.00 98 1023.4
20240418015506 4 113 0.0 0.0 0.00 0.23 0.00 98 1023.3
20240418015004 4 113 0.0 0.0 0.00 0.23 0.00 98 1023.4
20240418014504 4 113 0.0 0.0 0.00 0.23 0.00 98 1023.5
20240418014004 4 113 0.0 0.0 0.00 0.23 0.00 98 1023.5
20240418013506 4 113 0.0 0.0 0.00 0.23 0.00 98 1023.6
20240418013005 4 113 0.0 0.0 0.00 0.23 0.00 98 1023.6
20240418012502 4 113 0.0 0.0 0.00 0.23 0.00 98 1023.6
20240418012002 3 113 0.0 0.0 0.00 0.23 0.00 98 1023.6
20240418011501 3 113 0.0 0.0 0.00 0.23 0.00 98 1023.6
20240418011100 3 113 0.0 0.0 0.00 0.23 0.00 98 1023.8
20240418010559 3 113 0.0 0.0 0.00 0.23 0.00 98 1023.8
20240418010059 3 113 0.0 0.0 0.00 0.23 0.00 98 1023.9
20240418005558 3 113 0.0 0.0 0.00 0.23 0.00 98 1023.8
20240418005058 3 113 0.0 0.0 0.00 0.23 0.00 98 1023.7
20240418004605 3 113 0.0 0.0 0.00 0.23 0.00 98 1023.7
20240418004056 3 113 0.0 0.0 0.00 0.23 0.00 97 1023.7
20240418003555 3 113 0.0 0.0 0.00 0.23 0.00 97 1023.6
20240418003100 3 113 0.0 0.0 0.00 0.23 0.00 97 1023.6
20240418002555 3 113 0.0 0.0 0.00 0.23 0.00 97 1023.6
20240418002057 3 113 0.0 0.0 0.00 0.23 0.00 97 1023.5
20240418001554 3 113 0.0 0.0 0.00 0.23 0.00 97 1023.5
20240418001053 3 113 0.0 0.0 0.00 0.23 0.00 97 1023.5
20240418000552 3 113 0.0 0.0 0.00 0.23 0.00 97 1023.4
20240418000051 3 113 0.0 0.0 0.00 0.23 0.00 97 1023.2
20240417235550 3 113 0.0 0.0 0.00 0.23 0.00 97 1023.2
20240417235050 3 113 0.0 0.0 0.00 0.23 0.00 97 1023.2
20240417234549 3 113 0.0 0.0 0.00 0.23 0.00 97 1023.2
20240417234049 3 113 0.0 0.0 0.00 0.23 0.00 97 1023.0
20240417233548 3 113 0.0 0.0 0.00 0.23 0.00 97 1023.0
20240417233049 3 113 0.0 0.0 0.00 0.23 0.00 97 1023.2
20240417232547 3 113 0.0 0.0 0.00 0.23 0.00 97 1023.1
20240417232049 3 113 0.0 0.0 0.00 0.23 0.00 97 1023.0
20240417231546 3 113 0.0 0.0 0.00 0.23 0.00 97 1023.0
20240417231045 3 113 0.0 0.0 0.00 0.23 0.00 97 1023.0
20240417230544 3 113 0.0 0.0 0.00 0.23 0.00 97 1022.9
20240417230045 3 113 0.0 0.0 0.00 0.23 0.23 97 1022.8
20240417225546 3 113 0.0 0.0 0.00 0.23 0.23 97 1022.7
20240417225044 3 113 0.0 0.0 0.00 0.23 0.23 97 1022.6
20240417224550 3 113 0.0 0.0 0.00 0.23 0.23 97 1022.6
20240417224043 3 113 0.0 0.0 0.00 0.23 0.23 97 1022.5
20240417223540 3 113 0.0 0.0 0.00 0.23 0.23 97 1022.3
20240417223039 3 113 0.0 0.0 0.00 0.23 0.23 97 1022.3
20240417222639 3 113 0.0 0.0 0.00 0.23 0.23 97 1022.1
20240417222139 3 113 0.0 0.0 0.00 0.23 0.23 97 1022.1
20240417221540 3 113 0.0 0.0 0.00 0.23 0.23 97 1022.2
20240417221037 3 113 0.0 1.6 0.00 0.23 0.23 97 1022.0
20240417220536 3 113 0.0 1.6 0.00 0.23 0.23 97 1021.9
20240417220040 3 113 0.0 1.6 0.00 0.23 0.23 97 1021.8
20240417215535 3 113 0.0 0.0 0.00 0.23 0.23 97 1021.8
20240417215037 3 113 0.0 0.0 0.00 0.23 0.23 96 1021.7
20240417214549 4 113 0.0 1.6 0.00 0.23 0.23 97 1021.8
20240417214033 4 113 0.0 1.6 0.00 0.23 0.23 96 1021.8
20240417213536 4 113 0.0 0.0 0.00 0.23 0.23 97 1021.7
20240417213034 4 113 0.0 0.0 0.00 0.23 0.23 97 1021.6
20240417212532 5 113 0.0 0.0 0.00 0.23 0.23 97 1021.6
20240417212033 5 113 0.0 0.0 0.00 0.23 0.23 97 1021.6
20240417211532 5 113 0.0 0.0 0.00 0.23 0.23 97 1021.4
20240417211032 5 113 0.0 0.0 0.00 0.23 0.23 97 1021.4
20240417210532 5 113 0.0 0.0 0.00 0.23 0.23 96 1021.4
20240417210035 5 113 0.0 0.0 0.00 0.23 0.23 97 1021.4
20240417205531 5 113 0.0 0.0 0.00 0.23 0.23 97 1021.4
20240417205031 5 113 0.0 0.0 0.00 0.23 0.23 97 1021.3
20240417204535 6 113 0.0 0.0 0.00 0.23 0.23 97 1021.2
20240417204030 6 113 0.0 0.0 0.00 0.23 0.23 97 1021.2
20240417203530 6 113 0.0 0.0 0.00 0.23 0.23 97 1021.2
20240417203037 6 113 0.0 0.0 0.00 0.23 0.23 97 1021.1
20240417202530 6 113 0.0 0.0 0.00 0.23 0.23 97 1021.1
20240417202032 6 113 0.0 0.0 0.03 0.23 0.23 97 1020.7
20240417201532 6 113 0.0 0.0 0.03 0.23 0.23 97 1020.8
20240417201030 6 113 0.0 0.0 0.03 0.23 0.23 97 1020.6
20240417200530 6 113 0.0 0.0 0.03 0.23 0.23 97 1020.7
20240417200042 6 113 0.0 0.0 0.03 0.23 0.23 97 1020.6
20240417195528 6 113 0.0 0.0 0.03 0.23 0.23 97 1020.6
20240417195028 6 113 0.0 0.0 0.03 0.23 0.23 97 1020.6
20240417194528 6 113 0.0 0.0 0.03 0.23 0.23 97 1020.4
20240417194027 6 113 0.0 3.2 0.03 0.23 0.23 97 1020.5
20240417193527 6 113 0.0 3.2 0.03 0.23 0.23 97 1020.5
20240417193028 6 113 0.0 3.2 0.03 0.23 0.23 97 1020.4
20240417192530 6 113 0.0 4.8 0.03 0.23 0.23 97 1020.2
20240417192027 6 113 0.0 3.2 0.00 0.20 0.20 97 1020.0
20240417191526 6 113 0.0 3.2 0.00 0.20 0.20 97 1019.9
20240417191026 6 113 0.0 4.8 0.00 0.20 0.20 97 1019.8
20240417190526 6 113 0.0 4.8 0.00 0.20 0.20 97 1019.7
20240417190043 6 113 0.0 6.4 0.00 0.20 0.20 97 1019.6
20240417185527 6 113 0.0 6.4 0.00 0.20 0.20 97 1019.6
20240417185028 6 113 1.6 6.4 0.00 0.20 0.20 97 1019.5
20240417184526 6 113 1.6 8.0 0.00 0.20 0.20 97 1019.4
20240417184029 6 114 1.6 8.0 0.00 0.20 0.20 97 1019.4
20240417183524 6 117 1.6 9.7 0.00 0.20 0.20 97 1019.5
20240417183025 6 133 3.2 9.7 0.00 0.20 0.20 97 1019.3
20240417182528 6 107 3.2 11.3 0.00 0.20 0.20 97 1019.3
20240417182029 6 116 4.8 14.5 0.00 0.20 0.20 97 1019.1
20240417181525 6 103 4.8 14.5 0.00 0.20 0.20 97 1019.1
20240417181025 6 107 3.2 9.7 0.00 0.20 0.20 97 1019.1
20240417180524 6 113 1.6 16.1 0.00 0.20 0.20 97 1019.0
20240417180026 6 91 4.8 16.1 0.00 0.20 0.20 97 1018.9
20240417175525 6 100 3.2 17.7 0.00 0.20 0.20 97 1018.7
20240417175025 6 106 3.2 19.3 0.00 0.20 0.20 97 1018.6
20240417174524 6 105 6.4 19.3 0.00 0.20 0.20 97 1018.7
20240417174023 6 89 3.2 12.9 0.00 0.20 0.20 97 1018.6
20240417173523 6 85 3.2 12.9 0.00 0.20 0.20 97 1018.5
20240417173025 6 103 1.6 12.9 0.00 0.20 0.20 97 1018.5
20240417172524 6 95 4.8 16.1 0.00 0.20 0.20 97 1018.5
20240417172027 6 94 8.0 16.1 0.00 0.20 0.20 97 1018.4